| time (UTC) | temp F | wind direction | speed knots | gust knots | rain 1hr in | rain 24hr in | rain mn in | humidity % | barometer mb |
| 20260906204511 | 79 | 156 | 1.7 | 3.5 | 0.00 | 0.00 | 0.00 | 71 | 1004.8 |
| 20260906203007 | 78 | 239 | 2.6 | 4.3 | 0.00 | 0.00 | 0.00 | 70 | 1004.7 |
| 20260906201510 | 77 | 214 | 1.7 | 4.3 | 0.00 | 0.00 | 0.00 | 67 | 1004.4 |
| 20260906200103 | 75 | 269 | 3.5 | 7.8 | 0.00 | 0.00 | 0.00 | 60 | 1004.4 |
| 20260906194557 | 75 | 278 | 8.7 | 13.9 | 0.00 | 0.00 | 0.00 | 60 | 1004.7 |
| 20260906193050 | 74 | 265 | 5.2 | 10.4 | 0.00 | 0.00 | 0.00 | 60 | 1005.2 |
| 20260906191600 | 75 | 274 | 4.3 | 7.8 | 0.00 | 0.00 | 0.00 | 66 | 1005.6 |
| 20260906190041 | 75 | 280 | 2.6 | 7.0 | 0.00 | 0.00 | 0.00 | 70 | 1005.9 |
| 20260906184536 | 76 | 292 | 0.9 | 6.1 | 0.00 | 0.00 | 0.00 | 71 | 1006.0 |
| 20260906183035 | 76 | 267 | 3.5 | 10.4 | 0.00 | 0.00 | 0.00 | 71 | 1005.6 |
| 20260906181532 | 77 | 282 | 6.1 | 12.2 | 0.00 | 0.00 | 0.00 | 71 | 1005.6 |
| 20260906180026 | 78 | 228 | 3.5 | 13.0 | 0.00 | 0.00 | 0.00 | 71 | 1005.9 |
| 20260906174524 | 78 | 226 | 5.2 | 14.8 | 0.00 | 0.00 | 0.00 | 70 | 1005.9 |
| 20260906173015 | 78 | 252 | 5.2 | 12.2 | 0.00 | 0.00 | 0.00 | 61 | 1005.8 |
| 20260906171510 | 79 | 204 | 6.1 | 13.9 | 0.00 | 0.00 | 0.00 | 44 | 1006.1 |
| 20260906170005 | 79 | 185 | 7.8 | 15.6 | 0.00 | 0.00 | 0.00 | 15 | 1006.4 |
| 20260906164501 | 79 | 195 | 10.4 | 17.4 | 0.00 | 0.00 | 0.00 | 8 | 1006.3 |
| 20260906163100 | 79 | 157 | 7.0 | 16.5 | 0.00 | 0.00 | 0.00 | 3 | 1006.4 |
| 20260906161553 | 79 | 149 | 7.8 | 14.8 | 0.00 | 0.00 | 0.00 | 2 | 1006.3 |
| 20260906160048 | 78 | 149 | 7.0 | 11.3 | 0.00 | 0.00 | 0.00 | 1 | 1006.1 |
| 20260906153102 | 78 | 118 | 5.2 | 9.6 | 0.00 | 0.00 | 0.00 | 9 | 1006.0 |
| 20260906151549 | 78 | 122 | 7.0 | 10.4 | 0.00 | 0.00 | 0.00 | 13 | 1005.6 |
| 20260906150035 | 78 | 114 | 5.2 | 11.3 | 0.00 | 0.00 | 0.00 | 18 | 1005.5 |
| 20260906144530 | 78 | 144 | 6.1 | 8.7 | 0.00 | 0.00 | 0.00 | 7 | 1005.5 |
| 20260906143034 | 76 | 86 | 2.6 | 5.2 | 0.00 | 0.00 | 0.00 | 1 | 1005.8 |
| 20260906141519 | 75 | 90 | 2.6 | 4.3 | 0.00 | 0.00 | 0.00 | 1 | 1005.8 |
| 20260906140021 | 74 | 33 | 2.6 | 4.3 | 0.00 | 0.00 | 0.00 | 1 | 1005.9 |
| 20260906134511 | 73 | 342 | 2.6 | 4.3 | 0.00 | 0.00 | 0.00 | 1 | 1006.2 |
| 20260906133018 | 73 | 104 | 0.0 | 1.7 | 0.00 | 0.00 | 0.00 | 1 | 1006.0 |
| 20260906131501 | 72 | 125 | 0.0 | 0.0 | 0.00 | 0.00 | 0.00 | 1 | 1006.0 |
| 20260906130057 | 72 | 125 | 0.9 | 2.6 | 0.00 | 0.00 | 0.00 | 1 | 1005.7 |
| 20260906124552 | 71 | 108 | 0.0 | 0.9 | 0.00 | 0.00 | 0.00 | 1 | 1005.5 |
| 20260906123055 | 71 | 108 | 0.0 | 0.9 | 0.00 | 0.00 | 0.00 | 1 | 1005.6 |
| 20260906121545 | 70 | 108 | 0.0 | 0.9 | 0.00 | 0.00 | 0.00 | 1 | 1004.9 |
| 20260906120039 | 70 | 109 | 0.0 | 1.7 | 0.00 | 0.00 | 0.00 | 1 | 1005.1 |
| 20260906114534 | 70 | 95 | 0.9 | 2.6 | 0.00 | 0.00 | 0.00 | 1 | 1004.9 |
| 20260906113033 | 70 | 118 | 0.0 | 0.9 | 0.00 | 0.00 | 0.00 | 1 | 1004.9 |
| 20260906111529 | 70 | 118 | 0.0 | 2.6 | 0.00 | 0.00 | 0.00 | 1 | 1004.9 |
| 20260906110022 | 70 | 65 | 1.7 | 3.5 | 0.00 | 0.00 | 0.00 | 1 | 1004.9 |
| 20260906104519 | 70 | 57 | 1.7 | 3.5 | 0.00 | 0.00 | 0.00 | 1 | 1004.9 |
| 20260906103014 | 71 | 88 | 1.7 | 4.3 | 0.00 | 0.00 | 0.00 | 1 | 1005.0 |
| 20260906101519 | 71 | 53 | 0.9 | 3.5 | 0.00 | 0.00 | 0.00 | 1 | 1005.3 |
| 20260906100005 | 71 | 104 | 0.0 | 0.0 | 0.00 | 0.00 | 0.00 | 1 | 1005.6 |
| 20260906094607 | 71 | 104 | 0.0 | 0.0 | 0.00 | 0.00 | 0.00 | 1 | 1005.6 |
| 20260906091553 | 70 | 104 | 0.0 | 0.0 | 0.00 | 0.00 | 0.00 | 1 | 1005.5 |
| 20260906090100 | 70 | 104 | 0.9 | 1.7 | 0.00 | 0.00 | 0.00 | 1 | 1005.4 |
| 20260906084543 | 70 | 104 | 0.0 | 1.7 | 0.00 | 0.00 | 0.00 | 1 | 1005.1 |
| 20260906083040 | 70 | 104 | 0.9 | 2.6 | 0.00 | 0.00 | 0.00 | 1 | 1005.2 |
| 20260906081535 | 70 | 93 | 0.9 | 1.7 | 0.00 | 0.00 | 0.00 | 1 | 1005.2 |
| 20260906080031 | 70 | 83 | 0.9 | 2.6 | 0.00 | 0.00 | 0.00 | 1 | 1004.9 |
| 20260906074526 | 70 | 111 | 1.7 | 2.6 | 0.00 | 0.00 | 0.00 | 1 | 1004.8 |
| 20260906073021 | 70 | 94 | 0.9 | 1.7 | 0.00 | 0.00 | 0.00 | 1 | 1004.9 |
| 20260906071518 | 71 | 85 | 0.9 | 3.5 | 0.00 | 0.00 | 0.00 | 1 | 1004.9 |
| 20260906070013 | 71 | 84 | 0.9 | 2.6 | 0.00 | 0.00 | 0.00 | 1 | 1004.9 |
| 20260906064509 | 71 | 74 | 0.9 | 2.6 | 0.00 | 0.00 | 0.00 | 1 | 1004.9 |
| 20260906063005 | 71 | 93 | 0.0 | 0.9 | 0.00 | 0.00 | 0.00 | 1 | 1004.7 |
| 20260906061501 | 71 | 93 | 0.0 | 1.7 | 0.00 | 0.00 | 0.00 | 1 | 1004.6 |
| 20260906060056 | 72 | 93 | 0.0 | 2.6 | 0.00 | 0.00 | 0.00 | 1 | 1004.6 |
| 20260906054552 | 72 | 97 | 0.9 | 2.6 | 0.00 | 0.00 | 0.00 | 5 | 1004.6 |
| 20260906053050 | 73 | 130 | 1.7 | 3.5 | 0.00 | 0.00 | 0.00 | 8 | 1004.3 |
| 20260906051557 | 73 | 109 | 1.7 | 4.3 | 0.00 | 0.00 | 0.00 | 20 | 1004.6 |
| 20260906050051 | 74 | 119 | 2.6 | 7.0 | 0.00 | 0.00 | 0.00 | 23 | 1004.5 |
| 20260906044546 | 74 | 119 | 4.3 | 7.0 | 0.00 | 0.00 | 0.00 | 28 | 1004.7 |
| 20260906043041 | 74 | 114 | 4.3 | 8.7 | 0.00 | 0.00 | 0.00 | 22 | 1004.7 |
| 20260906041529 | 74 | 104 | 3.5 | 8.7 | 0.00 | 0.00 | 0.00 | 14 | 1003.9 |
| 20260906040033 | 74 | 105 | 3.5 | 6.1 | 0.00 | 0.00 | 0.00 | 17 | 1003.8 |
| 20260906034526 | 74 | 90 | 0.9 | 3.5 | 0.00 | 0.00 | 0.00 | 25 | 1004.0 |
| 20260906033017 | 75 | 78 | 1.7 | 4.3 | 0.00 | 0.00 | 0.00 | 34 | 1004.3 |
| 20260906030007 | 76 | 71 | 1.7 | 5.2 | 0.00 | 0.00 | 0.00 | 45 | 1004.6 |
| 20260906024503 | 77 | 95 | 1.7 | 5.2 | 0.00 | 0.00 | 0.00 | 51 | 1004.4 |
| 20260906023100 | 77 | 66 | 1.7 | 3.5 | 0.00 | 0.00 | 0.00 | 49 | 1004.1 |
| 20260906021555 | 77 | 115 | 2.6 | 3.5 | 0.00 | 0.00 | 0.00 | 53 | 1003.7 |
| 20260906020059 | 77 | 122 | 1.7 | 3.5 | 0.00 | 0.00 | 0.00 | 54 | 1003.7 |
| 20260906014547 | 78 | 303 | 0.0 | 0.0 | 0.00 | 0.00 | 0.00 | 58 | 1003.9 |
| 20260906013059 | 78 | 303 | 1.7 | 2.6 | 0.00 | 0.00 | 0.00 | 62 | 1003.9 |
| 20260906011545 | 79 | 102 | 0.9 | 4.3 | 0.00 | 0.00 | 0.00 | 64 | 1003.6 |
| 20260906010034 | 79 | 99 | 3.5 | 5.2 | 0.00 | 0.00 | 0.00 | 66 | 1003.6 |
| 20260906004530 | 79 | 114 | 0.0 | 0.9 | 0.00 | 0.00 | 0.00 | 68 | 1004.5 |
| 20260906003025 | 80 | 113 | 0.0 | 1.7 | 0.00 | 0.00 | 0.00 | 68 | 1004.7 |
| 20260906001520 | 82 | 114 | 0.0 | 0.9 | 0.00 | 0.00 | 0.00 | 70 | 1004.5 |
| 20260906000016 | 82 | 114 | 0.0 | 1.7 | 0.00 | 0.00 | 0.00 | 69 | 1004.3 |
| 20260905234512 | 83 | 111 | 0.9 | 4.3 | 0.00 | 0.00 | 0.00 | 68 | 1003.9 |
| 20260905233008 | 84 | 89 | 4.3 | 7.0 | 0.00 | 0.00 | 0.00 | 66 | 1003.7 |
| 20260905231508 | 85 | 103 | 4.3 | 11.3 | 0.00 | 0.00 | 0.00 | 64 | 1003.5 |
| 20260905230001 | 86 | 97 | 5.2 | 12.2 | 0.00 | 0.00 | 0.00 | 64 | 1003.1 |
| 20260905224601 | 88 | 95 | 8.7 | 15.6 | 0.00 | 0.00 | 0.00 | 61 | 1002.3 |
| 20260905223055 | 89 | 88 | 7.8 | 12.2 | 0.00 | 0.00 | 0.00 | 53 | 1002.1 |
| 20260905221551 | 89 | 92 | 9.6 | 13.0 | 0.00 | 0.00 | 0.00 | 51 | 1002.3 |
| 20260905220043 | 90 | 111 | 8.7 | 13.0 | 0.00 | 0.00 | 0.00 | 52 | 1002.6 |
| 20260905214540 | 90 | 112 | 7.0 | 13.0 | 0.00 | 0.00 | 0.00 | 51 | 1002.9 |
| 20260905213035 | 89 | 106 | 7.8 | 14.8 | 0.00 | 0.00 | 0.00 | 52 | 1002.9 |
| 20260905211530 | 89 | 82 | 7.0 | 11.3 | 0.00 | 0.00 | 0.00 | 52 | 1003.0 |